Date String (YYYY-MM-DD hh:mm:ss) UTC,Instrument flags,Ambient pressure (hPa),Sample flow (lpm),Bypass flow (lpm),Sample temperature (°C),Ambient temperature (°C),ASC tube jacket temperature (°C),LED temperature (°C),Box temperature (°C),Sample RH (%),Span deviation,Mass concentration (μg/m³),Mass concentration (μg/m³),Mass concentration (μg/m³)
DateTimeUTC,F1_M11,P_M11,Q1_M11,Q2_M11,T1_M11,T2_M11,T3_M11,T4_M11,T5_M11,U1_M11,ZSPAN_M11,X2_M11,X0_M11,X1_M11
2022-09-25 00:00:00,,0829.8,5.00,0.00,29.9,28.5,00.0,38.5,31.8,12.8,0000.0,0003.23,0008.04,0002.42
2022-09-25 00:01:00,,0829.8,5.00,0.00,29.9,28.7,00.0,38.5,31.9,12.8,0000.0,0003.23,0008.04,0002.41
2022-09-25 00:02:00,,0829.8,5.01,0.00,29.9,28.9,00.0,38.6,32.0,12.9,0000.0,0003.22,0007.91,0002.39
2022-09-25 00:03:00,,0829.8,4.99,0.00,30.0,28.5,00.0,38.6,32.0,13.2,0000.0,0003.22,0007.92,0002.40
2022-09-25 00:04:00,,0829.8,5.00,0.00,30.0,27.1,00.0,38.6,31.8,13.0,0000.0,0003.21,0007.83,0002.39
2022-09-25 00:05:00,,0829.8,5.01,0.00,29.9,26.4,00.0,38.5,31.7,12.6,0000.0,0003.20,0007.69,0002.38
2022-09-25 00:06:00,,0829.8,5.00,0.00,29.8,26.6,00.0,38.5,31.6,12.9,0000.0,0003.21,0007.55,0002.39
2022-09-25 00:07:00,,0829.8,4.99,0.00,29.8,26.9,00.0,38.4,31.5,13.1,0000.0,0003.22,0007.43,0002.39
2022-09-25 00:08:00,,0829.8,5.00,0.00,29.7,27.3,00.0,38.4,31.5,13.4,0000.0,0003.21,0007.43,0002.39
2022-09-25 00:09:00,,0829.8,4.99,0.00,29.7,27.6,00.0,38.4,31.6,13.5,0000.0,0003.22,0007.58,0002.38
2022-09-25 00:10:00,,0829.8,5.01,0.00,29.7,27.9,00.0,38.5,31.6,13.2,0000.0,0003.25,0007.82,0002.37
2022-09-25 00:11:00,,0829.8,4.98,0.00,29.8,28.1,00.0,38.5,31.7,13.2,0000.0,0003.23,0007.27,0002.36
2022-09-25 00:12:00,,0829.9,5.01,0.00,29.8,28.3,00.0,38.5,31.7,13.3,0000.0,0003.27,0006.18,0002.35
2022-09-25 00:13:00,,0829.9,4.99,0.00,29.8,28.5,00.0,38.5,31.8,13.5,0000.0,0003.29,0006.43,0002.36
2022-09-25 00:14:00,,0829.9,5.00,0.00,29.9,28.7,00.0,38.5,31.9,13.1,0000.0,0003.27,0007.95,0002.36
2022-09-25 00:15:00,,0829.8,5.00,0.00,29.9,28.9,00.0,38.6,32.0,12.8,0000.0,0003.29,0008.30,0002.36
2022-09-25 00:16:00,,0830.0,5.00,0.00,30.0,29.0,00.0,38.6,32.0,12.6,0000.0,0003.29,0008.83,0002.37
2022-09-25 00:17:00,,0829.9,4.99,0.00,30.0,28.5,00.0,38.6,32.0,12.6,0000.0,0003.29,0009.03,0002.37
2022-09-25 00:18:00,,0830.0,4.99,0.00,30.0,26.9,00.0,38.5,31.8,12.6,0000.0,0003.29,0010.02,0002.37
2022-09-25 00:19:00,,0829.9,5.00,0.00,29.9,26.4,00.0,38.5,31.7,12.7,0000.0,0003.28,0010.87,0002.37
2022-09-25 00:20:00,,0829.9,4.99,0.00,29.8,26.6,00.0,38.5,31.6,12.8,0000.0,0003.27,0010.99,0002.38
2022-09-25 00:21:00,,0829.9,5.00,0.00,29.8,26.9,00.0,38.4,31.5,12.9,0000.0,0003.25,0010.75,0002.38
2022-09-25 00:22:00,,0829.9,5.01,0.00,29.7,27.2,00.0,38.4,31.5,12.9,0000.0,0003.25,0010.79,0002.39
2022-09-25 00:23:00,,0830.0,5.00,0.00,29.7,27.6,00.0,38.4,31.5,12.8,0000.0,0003.21,0011.13,0002.39
2022-09-25 00:24:00,,0830.0,5.00,0.00,29.7,27.8,00.0,38.4,31.6,12.9,0000.0,0003.20,0011.21,0002.39
2022-09-25 00:25:00,,0830.1,5.00,0.00,29.8,28.1,00.0,38.4,31.7,12.9,0000.0,0003.25,0010.20,0002.40
2022-09-25 00:26:00,,0830.1,5.01,0.00,29.8,28.3,00.0,38.5,31.7,12.9,0000.0,0003.24,0009.98,0002.41
2022-09-25 00:27:00,,0830.1,4.99,0.00,29.8,28.5,00.0,38.5,31.8,12.8,0000.0,0003.26,0009.87,0002.40
2022-09-25 00:28:00,,0830.1,4.99,0.00,29.9,28.7,00.0,38.5,31.9,12.8,0000.0,0003.25,0009.75,0002.41
2022-09-25 00:29:00,,0830.1,5.00,0.00,29.9,28.8,00.0,38.5,31.9,12.7,0000.0,0003.26,0009.64,0002.42
2022-09-25 00:30:00,,0830.1,5.00,0.00,30.0,28.6,00.0,38.6,31.9,12.6,0000.0,0003.29,0008.66,0002.43
2022-09-25 00:31:00,,0830.1,5.00,0.00,30.0,27.2,00.0,38.5,31.8,12.6,0000.0,0003.27,0008.19,0002.41
2022-09-25 00:32:00,,0830.1,5.00,0.00,29.9,26.2,00.0,38.5,31.7,12.4,0000.0,0003.25,0008.12,0002.40
2022-09-25 00:33:00,,0830.1,4.99,0.00,29.8,26.4,00.0,38.4,31.6,12.4,0000.0,0003.25,0008.69,0002.42
2022-09-25 00:34:00,,0830.1,5.00,0.00,29.8,26.7,00.0,38.4,31.5,12.4,0000.0,0003.28,0008.72,0002.44
2022-09-25 00:35:00,,0830.1,5.00,0.00,29.7,27.0,00.0,38.4,31.4,12.4,0000.0,0003.26,0008.45,0002.44
2022-09-25 00:36:00,,0830.1,5.00,0.00,29.7,27.4,00.0,38.4,31.5,12.4,0000.0,0003.21,0008.35,0002.42
2022-09-25 00:37:00,,0830.1,5.02,0.00,29.7,27.7,00.0,38.4,31.5,12.3,0000.0,0003.20,0008.39,0002.41
2022-09-25 00:38:00,,0830.1,4.99,0.00,29.7,27.9,00.0,38.4,31.6,12.3,0000.0,0003.17,0007.97,0002.40
2022-09-25 00:39:00,,0830.1,5.00,0.00,29.7,28.2,00.0,38.4,31.7,12.3,0000.0,0003.16,0007.91,0002.38
2022-09-25 00:40:00,,0830.1,5.00,0.00,29.8,28.3,00.0,38.4,31.7,12.2,0000.0,0003.16,0007.53,0002.37
2022-09-25 00:41:00,,0830.1,4.99,0.00,29.8,28.5,00.0,38.5,31.7,12.2,0000.0,0003.14,0007.50,0002.35
2022-09-25 00:42:00,,0830.2,4.99,0.00,29.8,28.6,00.0,38.5,31.8,12.2,0000.0,0003.15,0007.96,0002.35
2022-09-25 00:43:00,,0830.3,5.01,0.00,29.9,28.8,00.0,38.5,31.9,12.0,0000.0,0003.15,0008.22,0002.35
2022-09-25 00:44:00,,0830.2,5.01,0.00,29.9,28.9,00.0,38.6,32.0,12.0,0000.0,0003.16,0007.70,0002.33
2022-09-25 00:45:00,,0830.3,5.00,0.00,30.0,28.7,00.0,38.6,32.0,11.9,0000.0,0003.14,0008.19,0002.31
2022-09-25 00:46:00,,0830.2,5.01,0.00,30.0,27.2,00.0,38.5,31.9,11.9,0000.0,0003.16,0008.29,0002.30
2022-09-25 00:47:00,,0830.2,4.98,0.00,29.9,26.3,00.0,38.5,31.7,11.9,0000.0,0003.15,0009.31,0002.31
2022-09-25 00:48:00,,0830.2,5.01,0.00,29.9,26.4,00.0,38.5,31.6,11.9,0000.0,0003.18,0010.37,0002.32
2022-09-25 00:49:00,,0830.3,5.01,0.00,29.8,26.7,00.0,38.4,31.5,11.9,0000.0,0003.21,0010.70,0002.34
2022-09-25 00:50:00,,0830.3,5.01,0.00,29.7,27.1,00.0,38.4,31.5,12.0,0000.0,0003.23,0011.09,0002.35
2022-09-25 00:51:00,,0830.4,4.99,0.00,29.7,27.4,00.0,38.4,31.5,12.0,0000.0,0003.18,0011.16,0002.34
2022-09-25 00:52:00,,0830.4,5.00,0.00,29.7,27.7,00.0,38.4,31.5,12.3,0000.0,0003.16,0010.91,0002.36
2022-09-25 00:53:00,,0830.4,4.99,0.00,29.7,27.9,00.0,38.4,31.5,13.0,0000.0,0003.17,0010.57,0002.38
2022-09-25 00:54:00,,0830.4,5.01,0.00,29.7,28.2,00.0,38.4,31.7,13.2,0000.0,0003.20,0010.42,0002.39
2022-09-25 00:55:00,,0830.5,4.99,0.00,29.8,28.3,00.0,38.5,31.7,13.1,0000.0,0003.25,0010.93,0002.43
2022-09-25 00:56:00,,0830.4,5.00,0.00,29.8,28.5,00.0,38.5,31.8,13.2,0000.0,0003.27,0010.53,0002.46
2022-09-25 00:57:00,,0830.4,5.01,0.00,29.8,28.7,00.0,38.5,31.9,13.2,0000.0,0003.27,0010.98,0002.47
2022-09-25 00:58:00,,0830.4,5.00,0.00,29.9,28.8,00.0,38.5,31.9,13.2,0000.0,0003.28,0010.59,0002.49
2022-09-25 00:59:00,,0830.5,5.00,0.00,29.9,28.9,00.0,38.6,31.9,13.1,0000.0,0003.25,0009.72,0002.50
